{"data":{"norad_id":65824,"epoch":"2026-05-25T03:27:53.535168Z","epoch_age_seconds":62636,"freshness":"FRESH","line1":"1 65824U 25221B   26145.14436962  .00016893  00000+0  58118-3 0  9992","line2":"2 65824  53.1575  93.5982 0001210  85.8838 274.2301 15.30200324 37787","mean_motion":15.30200324,"eccentricity":0.000121,"inclination_deg":53.1575,"raan_deg":93.5982,"arg_perigee_deg":85.8838,"mean_anomaly_deg":274.2301,"bstar":0.00058118,"rev_number":3778,"period_min":94.105325780862,"perigee_km":474.38484653055,"apogee_km":476.04335749724,"semimajor_km":6853.3511020139,"source":"CELESTRAK","updated_at":"2026-05-25T13:38:20.941600Z"}}